Time,TemperatureF,DewpointF,PressureIn,WindDirection,WindDirectionDegrees,WindSpeedMPH,WindSpeedGustMPH,Humidity,HourlyPrecipIn,Conditions,Clouds,dailyrainin,SoftwareType,DateUTC
2017-02-20 00:04:00,49.8,47.9,30.13,NW,317,0.0,0.0,93,0.00,,FEW250,0.00,VWS V15.00,2017-02-20 06:04:00,
2017-02-20 00:09:00,49.7,47.8,30.13,NW,317,0.0,0.0,93,0.00,,FEW250,0.00,VWS V15.00,2017-02-20 06:09:00,
2017-02-20 00:14:00,49.6,47.7,30.13,NW,317,0.0,0.0,93,0.00,,FEW250,0.00,VWS V15.00,2017-02-20 06:14:00,
2017-02-20 00:19:00,49.4,47.5,30.13,NW,317,0.0,0.0,93,0.00,,FEW250,0.00,VWS V15.00,2017-02-20 06:19:00,
2017-02-20 00:24:00,49.3,47.4,30.13,NW,317,0.0,0.0,93,0.00,,FEW250,0.00,VWS V15.00,2017-02-20 06:24:00,
2017-02-20 00:29:00,49.2,47.3,30.13,NW,317,0.0,0.0,93,0.00,,FEW250,0.00,VWS V15.00,2017-02-20 06:29:00,
2017-02-20 00:34:00,49.2,47.5,30.13,NW,317,0.0,0.0,94,0.00,,FEW250,0.00,VWS V15.00,2017-02-20 06:34:00,
2017-02-20 00:39:00,49.3,47.7,30.13,NW,317,0.0,0.0,94,0.00,,FEW250,0.00,VWS V15.00,2017-02-20 06:39:00,
2017-02-20 00:44:00,49.2,47.3,30.13,NW,317,0.0,0.0,93,0.00,,SCT250,0.00,VWS V15.00,2017-02-20 06:44:00,
2017-02-20 00:49:00,49.0,47.1,30.13,NW,317,0.0,0.0,93,0.00,,SCT250,0.00,VWS V15.00,2017-02-20 06:49:00,
2017-02-20 00:54:00,48.8,46.9,30.13,NW,317,0.0,0.0,93,0.00,,SCT250,0.00,VWS V15.00,2017-02-20 06:54:00,
2017-02-20 00:59:00,48.6,46.7,30.13,NW,317,0.0,0.0,93,0.00,,SCT250,0.00,VWS V15.00,2017-02-20 06:59:00,
2017-02-20 01:04:00,48.4,46.8,30.13,NW,317,0.0,0.0,94,0.00,,SCT250,0.00,VWS V15.00,2017-02-20 07:04:00,
2017-02-20 01:05:00,48.4,46.8,30.13,NW,317,0.0,0.0,94,0.00,,SCT250,0.00,VWS V15.00,2017-02-20 07:05:00,
2017-02-20 01:10:00,48.2,46.6,30.13,NW,317,0.0,0.0,94,0.00,,SCT250,0.00,VWS V15.00,2017-02-20 07:10:00,
2017-02-20 01:15:00,48.1,46.5,30.13,NW,317,0.0,0.0,94,0.00,,SCT250,0.00,VWS V15.00,2017-02-20 07:15:00,
2017-02-20 01:20:00,48.0,46.4,30.13,NW,317,0.0,0.0,94,0.00,,SCT250,0.00,VWS V15.00,2017-02-20 07:20:00,
2017-02-20 01:25:00,48.0,46.4,30.13,NW,317,0.0,0.0,94,0.00,,SCT250,0.00,VWS V15.00,2017-02-20 07:25:00,
2017-02-20 01:30:00,47.8,46.2,30.13,NW,317,0.0,0.0,94,0.00,,SCT250,0.00,VWS V15.00,2017-02-20 07:30:00,
2017-02-20 01:35:00,47.6,46.0,30.13,NW,317,0.0,0.0,94,0.00,,SCT250,0.00,VWS V15.00,2017-02-20 07:35:00,
2017-02-20 01:40:00,47.4,45.8,30.13,NW,317,0.0,0.0,94,0.00,,SCT250,0.00,VWS V15.00,2017-02-20 07:40:00,
2017-02-20 01:45:00,47.4,46.0,30.13,NW,317,0.0,0.0,95,0.00,,SCT250,0.00,VWS V15.00,2017-02-20 07:45:00,
2017-02-20 01:50:00,47.3,45.7,30.13,NW,317,0.0,0.0,94,0.00,,SCT250,0.00,VWS V15.00,2017-02-20 07:50:00,
2017-02-20 01:55:00,47.2,45.8,30.13,NW,317,0.0,0.0,95,0.00,,SCT250,0.00,VWS V15.00,2017-02-20 07:55:00,
2017-02-20 02:00:00,47.2,45.8,30.13,NW,317,0.0,0.0,95,0.00,,SCT250,0.00,VWS V15.00,2017-02-20 08:00:00,
2017-02-20 02:05:00,47.1,45.7,30.13,NW,317,0.0,0.0,95,0.00,,SCT250,0.00,VWS V15.00,2017-02-20 08:05:00,
2017-02-20 02:10:00,47.0,45.7,30.13,NW,317,0.0,0.0,95,0.00,,SCT250,0.00,VWS V15.00,2017-02-20 08:10:00,
2017-02-20 02:15:00,46.8,45.5,30.13,NW,317,0.0,0.0,95,0.00,,SCT250,0.00,VWS V15.00,2017-02-20 08:15:00,
2017-02-20 02:20:00,46.7,45.3,30.12,NW,317,0.0,0.0,95,0.00,,SCT250,0.00,VWS V15.00,2017-02-20 08:20:00,
2017-02-20 02:25:00,46.6,45.2,30.12,NW,317,0.0,0.0,95,0.00,,SCT250,0.00,VWS V15.00,2017-02-20 08:25:00,
2017-02-20 02:30:00,46.4,45.0,30.12,NW,317,0.0,0.0,95,0.00,,SCT250,0.00,VWS V15.00,2017-02-20 08:30:00,
2017-02-20 02:35:00,46.3,45.0,30.12,NW,317,0.0,0.0,95,0.00,,SCT250,0.00,VWS V15.00,2017-02-20 08:35:00,
2017-02-20 02:40:00,46.2,44.8,30.12,NW,317,0.0,0.0,95,0.00,,FEW250,0.00,VWS V15.00,2017-02-20 08:40:00,
2017-02-20 02:45:00,46.2,44.8,30.12,NW,317,0.0,0.0,95,0.00,,FEW250,0.00,VWS V15.00,2017-02-20 08:45:00,
2017-02-20 02:50:00,46.1,44.8,30.13,NW,317,0.0,0.0,95,0.00,,FEW250,0.00,VWS V15.00,2017-02-20 08:50:00,
2017-02-20 02:55:00,46.0,44.7,30.12,NW,317,0.0,0.0,95,0.00,,FEW250,0.00,VWS V15.00,2017-02-20 08:55:00,
2017-02-20 03:00:00,45.9,44.5,30.13,NW,317,0.0,0.0,95,0.00,,FEW250,0.00,VWS V15.00,2017-02-20 09:00:00,
2017-02-20 03:05:00,45.9,44.8,30.13,NW,317,0.0,0.0,96,0.00,,FEW250,0.00,VWS V15.00,2017-02-20 09:05:00,
2017-02-20 03:10:00,45.8,44.5,30.13,NW,317,0.0,0.0,95,0.00,,FEW250,0.00,VWS V15.00,2017-02-20 09:10:00,
2017-02-20 03:15:00,45.7,44.3,30.12,NW,317,0.0,0.0,95,0.00,,FEW250,0.00,VWS V15.00,2017-02-20 09:15:00,
2017-02-20 03:20:00,45.6,44.2,30.13,NW,317,0.0,0.0,95,0.00,,FEW250,0.00,VWS V15.00,2017-02-20 09:20:00,
2017-02-20 03:25:00,45.4,44.0,30.13,NW,317,0.0,0.0,95,0.00,,FEW250,0.00,VWS V15.00,2017-02-20 09:25:00,
2017-02-20 03:30:00,45.2,43.9,30.14,NW,317,0.0,0.0,95,0.00,,FEW250,0.00,VWS V15.00,2017-02-20 09:30:00,
2017-02-20 03:35:00,45.2,43.9,30.14,NW,317,0.0,0.0,95,0.00,,FEW250,0.00,VWS V15.00,2017-02-20 09:35:00,
2017-02-20 03:40:00,45.2,44.1,30.14,NW,317,0.0,0.0,96,0.00,,FEW250,0.00,VWS V15.00,2017-02-20 09:40:00,
2017-02-20 03:45:00,45.2,44.1,30.14,NW,317,0.0,0.0,96,0.00,,FEW250,0.00,VWS V15.00,2017-02-20 09:45:00,
2017-02-20 03:50:00,45.3,44.2,30.15,NW,317,0.0,0.0,96,0.00,,FEW250,0.00,VWS V15.00,2017-02-20 09:50:00,
2017-02-20 03:55:00,45.3,44.2,30.15,NW,317,0.0,0.0,96,0.00,,FEW250,0.00,VWS V15.00,2017-02-20 09:55:00,
2017-02-20 04:00:00,45.3,44.2,30.15,NW,317,0.0,0.0,96,0.00,,FEW250,0.00,VWS V15.00,2017-02-20 10:00:00,
2017-02-20 04:05:00,45.4,44.3,30.15,NW,317,0.0,0.0,96,0.00,,FEW250,0.00,VWS V15.00,2017-02-20 10:05:00,
2017-02-20 04:10:00,45.4,44.3,30.15,NW,317,0.0,0.0,96,0.00,,FEW250,0.00,VWS V15.00,2017-02-20 10:10:00,
2017-02-20 04:15:00,45.3,44.2,30.15,NW,317,0.0,0.0,96,0.00,,FEW250,0.00,VWS V15.00,2017-02-20 10:15:00,
2017-02-20 04:20:00,45.4,44.3,30.15,NW,317,0.0,0.0,96,0.00,,FEW250,0.00,VWS V15.00,2017-02-20 10:20:00,
2017-02-20 04:25:00,45.3,44.2,30.16,NW,317,0.0,0.0,96,0.00,,FEW250,0.00,VWS V15.00,2017-02-20 10:25:00,
2017-02-20 04:30:00,45.2,44.1,30.16,NW,317,0.0,0.0,96,0.00,,FEW250,0.00,VWS V15.00,2017-02-20 10:30:00,
2017-02-20 04:35:00,45.1,44.0,30.16,NW,317,0.0,0.0,96,0.00,,FEW250,0.00,VWS V15.00,2017-02-20 10:35:00,
2017-02-20 04:40:00,45.0,43.9,30.17,NW,317,0.0,0.0,96,0.00,,,0.00,VWS V15.00,2017-02-20 10:40:00,
2017-02-20 04:45:00,44.9,43.8,30.17,NW,317,0.0,0.0,96,0.00,,,0.00,VWS V15.00,2017-02-20 10:45:00,
2017-02-20 04:50:00,44.9,43.8,30.17,NW,317,0.0,0.0,96,0.00,,,0.00,VWS V15.00,2017-02-20 10:50:00,
2017-02-20 04:55:00,44.9,43.8,30.17,NW,317,0.0,0.0,96,0.00,,,0.00,VWS V15.00,2017-02-20 10:55:00,
2017-02-20 05:00:00,44.9,43.8,30.16,NW,317,0.0,0.0,96,0.00,,,0.00,VWS V15.00,2017-02-20 11:00:00,
2017-02-20 05:05:00,44.8,43.7,30.16,NW,317,0.0,0.0,96,0.00,,,0.00,VWS V15.00,2017-02-20 11:05:00,
2017-02-20 05:10:00,44.8,43.7,30.16,NW,317,0.0,0.0,96,0.00,,,0.00,VWS V15.00,2017-02-20 11:10:00,
2017-02-20 05:15:00,44.7,43.6,30.16,NW,317,0.0,0.0,96,0.00,,,0.00,VWS V15.00,2017-02-20 11:15:00,
2017-02-20 05:20:00,44.7,43.6,30.16,NW,317,0.0,0.0,96,0.00,,,0.00,VWS V15.00,2017-02-20 11:20:00,
2017-02-20 05:25:00,44.6,43.5,30.16,NW,317,0.0,0.0,96,0.00,,,0.00,VWS V15.00,2017-02-20 11:25:00,
2017-02-20 05:30:00,44.6,43.5,30.16,NW,317,0.0,0.0,96,0.00,,,0.00,VWS V15.00,2017-02-20 11:30:00,
2017-02-20 05:35:00,44.5,43.4,30.16,NW,317,0.0,0.0,96,0.00,,,0.00,VWS V15.00,2017-02-20 11:35:00,
2017-02-20 05:40:00,44.4,43.3,30.16,NW,317,0.0,0.0,96,0.00,,,0.00,VWS V15.00,2017-02-20 11:40:00,
2017-02-20 05:45:00,44.3,43.2,30.16,NW,317,0.0,0.0,96,0.00,,,0.00,VWS V15.00,2017-02-20 11:45:00,
2017-02-20 05:50:00,44.3,43.2,30.16,NW,317,0.0,0.0,96,0.00,,,0.00,VWS V15.00,2017-02-20 11:50:00,
2017-02-20 05:55:00,44.3,43.2,30.15,NW,317,0.0,0.0,96,0.00,,,0.00,VWS V15.00,2017-02-20 11:55:00,
2017-02-20 06:00:00,44.3,43.2,30.16,NW,317,0.0,0.0,96,0.00,,,0.00,VWS V15.00,2017-02-20 12:00:00,
2017-02-20 06:05:00,44.3,43.2,30.15,NW,317,0.0,0.0,96,0.00,,,0.00,VWS V15.00,2017-02-20 12:05:00,
2017-02-20 06:10:00,44.3,43.2,30.15,NW,317,0.0,0.0,96,0.00,,,0.00,VWS V15.00,2017-02-20 12:10:00,
2017-02-20 06:15:00,44.2,43.1,30.15,NW,317,0.0,0.0,96,0.00,,,0.00,VWS V15.00,2017-02-20 12:15:00,
2017-02-20 06:20:00,44.2,43.1,30.15,NW,317,0.0,0.0,96,0.00,,,0.00,VWS V15.00,2017-02-20 12:20:00,
2017-02-20 06:25:00,44.2,43.1,30.15,NW,317,0.0,0.0,96,0.00,,,0.00,VWS V15.00,2017-02-20 12:25:00,
2017-02-20 06:30:00,44.1,43.3,30.16,NW,317,0.0,0.0,97,0.00,,,0.00,VWS V15.00,2017-02-20 12:30:00,
2017-02-20 06:35:00,44.1,43.3,30.16,NW,317,0.0,0.0,97,0.00,,,0.00,VWS V15.00,2017-02-20 12:35:00,
2017-02-20 06:40:00,44.1,43.3,30.16,NW,317,0.0,0.0,97,0.00,,,0.00,VWS V15.00,2017-02-20 12:40:00,
2017-02-20 06:45:00,44.2,43.4,30.16,NW,317,0.0,0.0,97,0.00,,,0.00,VWS V15.00,2017-02-20 12:45:00,
2017-02-20 06:50:00,44.2,43.4,30.16,NW,317,0.0,0.0,97,0.00,,,0.00,VWS V15.00,2017-02-20 12:50:00,
2017-02-20 06:55:00,44.2,43.4,30.16,NW,317,0.0,0.0,97,0.00,,,0.00,VWS V15.00,2017-02-20 12:55:00,
2017-02-20 07:00:00,44.2,43.4,30.16,NW,317,0.0,0.0,97,0.00,,,0.00,VWS V15.00,2017-02-20 13:00:00,
2017-02-20 07:05:00,44.3,43.5,30.16,NW,317,0.0,0.0,97,0.00,,,0.00,VWS V15.00,2017-02-20 13:05:00,
2017-02-20 07:10:00,44.4,43.6,30.17,NW,317,0.0,0.0,97,0.00,,,0.00,VWS V15.00,2017-02-20 13:10:00,
2017-02-20 07:15:00,44.5,43.7,30.17,NW,317,0.0,0.0,97,0.00,,,0.00,VWS V15.00,2017-02-20 13:15:00,
2017-02-20 07:20:00,44.7,43.9,30.17,NW,317,0.0,0.0,97,0.00,,,0.00,VWS V15.00,2017-02-20 13:20:00,
2017-02-20 07:25:00,44.9,44.1,30.17,NW,317,0.0,0.0,97,0.00,,,0.00,VWS V15.00,2017-02-20 13:25:00,
2017-02-20 07:30:00,45.0,44.2,30.17,NW,317,0.0,0.0,97,0.00,,,0.00,VWS V15.00,2017-02-20 13:30:00,
2017-02-20 07:35:00,45.1,44.3,30.17,NW,317,0.0,0.0,97,0.00,,,0.00,VWS V15.00,2017-02-20 13:35:00,
2017-02-20 07:40:00,45.4,44.6,30.17,NW,317,0.0,0.0,97,0.00,,,0.00,VWS V15.00,2017-02-20 13:40:00,
2017-02-20 07:45:00,45.6,44.8,30.17,NW,317,0.0,0.0,97,0.00,,,0.00,VWS V15.00,2017-02-20 13:45:00,
2017-02-20 07:50:00,45.9,45.1,30.17,NW,317,0.0,0.0,97,0.00,,,0.00,VWS V15.00,2017-02-20 13:50:00,
2017-02-20 07:55:00,46.2,45.7,30.17,NW,317,0.0,0.0,98,0.00,,,0.00,VWS V15.00,2017-02-20 13:55:00,
2017-02-20 08:00:00,46.8,46.0,30.17,NW,317,0.0,0.0,97,0.00,,,0.00,VWS V15.00,2017-02-20 14:00:00,
2017-02-20 08:05:00,47.3,46.8,30.17,NW,317,0.0,0.0,98,0.00,,,0.00,VWS V15.00,2017-02-20 14:05:00,
2017-02-20 08:10:00,47.8,47.3,30.17,NW,317,0.0,0.0,98,0.00,,,0.00,VWS V15.00,2017-02-20 14:10:00,
2017-02-20 08:15:00,48.2,47.7,30.17,NW,317,0.0,0.0,98,0.00,,,0.00,VWS V15.00,2017-02-20 14:15:00,
2017-02-20 08:20:00,48.5,48.0,30.17,NW,317,0.0,0.0,98,0.00,,,0.00,VWS V15.00,2017-02-20 14:20:00,
2017-02-20 08:25:00,48.8,48.0,30.17,NW,317,0.0,0.0,97,0.00,,,0.00,VWS V15.00,2017-02-20 14:25:00,
2017-02-20 08:30:00,49.3,48.8,30.17,NW,317,0.0,0.0,98,0.00,,,0.00,VWS V15.00,2017-02-20 14:30:00,
2017-02-20 08:35:00,49.7,48.9,30.17,NW,317,0.0,0.0,97,0.00,,,0.00,VWS V15.00,2017-02-20 14:35:00,
2017-02-20 08:40:00,50.0,49.2,30.17,NW,317,0.0,0.0,97,0.00,,,0.00,VWS V15.00,2017-02-20 14:40:00,
2017-02-20 08:45:00,50.4,49.6,30.17,NW,317,0.0,0.0,97,0.00,,,0.00,VWS V15.00,2017-02-20 14:45:00,
2017-02-20 08:50:00,50.8,50.0,30.17,NW,317,0.0,0.0,97,0.00,,,0.00,VWS V15.00,2017-02-20 14:50:00,
2017-02-20 08:55:00,51.5,50.4,30.16,NW,317,0.0,0.0,96,0.00,,,0.00,VWS V15.00,2017-02-20 14:55:00,
2017-02-20 09:00:00,52.1,51.0,30.17,NW,317,0.0,0.0,96,0.00,,,0.00,VWS V15.00,2017-02-20 15:00:00,
2017-02-20 09:05:00,52.6,51.2,30.17,NW,317,0.0,0.0,95,0.00,,,0.00,VWS V15.00,2017-02-20 15:05:00,
2017-02-20 09:10:00,53.2,51.5,30.17,NW,317,0.0,0.0,94,0.00,,,0.00,VWS V15.00,2017-02-20 15:10:00,
2017-02-20 09:15:00,53.5,51.2,30.16,NW,317,0.0,0.0,92,0.00,,,0.00,VWS V15.00,2017-02-20 15:15:00,
2017-02-20 09:20:00,53.9,51.3,30.16,NW,317,0.0,0.0,91,0.00,,,0.00,VWS V15.00,2017-02-20 15:20:00,
2017-02-20 09:25:00,54.4,51.8,30.16,NW,317,0.0,0.0,91,0.00,,,0.00,VWS V15.00,2017-02-20 15:25:00,
2017-02-20 09:30:00,55.0,52.1,30.16,NW,317,0.0,0.0,90,0.00,,,0.00,VWS V15.00,2017-02-20 15:30:00,
2017-02-20 09:35:00,55.5,52.3,30.16,NW,317,0.0,0.0,89,0.00,,,0.00,VWS V15.00,2017-02-20 15:35:00,
2017-02-20 09:40:00,56.2,52.4,30.16,NW,317,0.0,0.0,87,0.00,,OVC250,0.00,VWS V15.00,2017-02-20 15:40:00,
2017-02-20 09:45:00,56.6,52.5,30.16,NW,317,0.0,0.0,86,0.00,,OVC250,0.00,VWS V15.00,2017-02-20 15:45:00,
2017-02-20 09:50:00,57.1,53.0,30.16,NW,317,0.0,0.0,86,0.00,,OVC250,0.00,VWS V15.00,2017-02-20 15:50:00,
2017-02-20 09:55:00,57.5,53.0,30.16,NW,317,0.0,0.0,85,0.00,,OVC250,0.00,VWS V15.00,2017-02-20 15:55:00,
2017-02-20 10:00:00,58.0,53.5,30.15,NW,317,0.0,0.0,85,0.00,,OVC250,0.00,VWS V15.00,2017-02-20 16:00:00,
2017-02-20 10:05:00,58.6,53.5,30.15,NW,317,0.0,0.0,83,0.00,,OVC250,0.00,VWS V15.00,2017-02-20 16:05:00,
2017-02-20 10:10:00,59.2,54.0,30.15,NW,317,0.0,0.0,83,0.00,,OVC250,0.00,VWS V15.00,2017-02-20 16:10:00,
2017-02-20 10:15:00,59.9,54.4,30.15,NW,317,0.0,2.0,82,0.00,,OVC250,0.00,VWS V15.00,2017-02-20 16:15:00,
2017-02-20 10:20:00,60.9,54.7,30.15,NW,317,0.0,0.0,80,0.00,,OVC250,0.00,VWS V15.00,2017-02-20 16:20:00,
2017-02-20 10:25:00,62.0,55.1,30.15,NW,317,3.0,3.0,78,0.00,,OVC250,0.00,VWS V15.00,2017-02-20 16:25:00,
2017-02-20 10:30:00,62.7,55.0,30.16,NW,317,0.0,0.0,76,0.00,,OVC250,0.00,VWS V15.00,2017-02-20 16:30:00,
2017-02-20 10:35:00,63.2,55.2,30.15,NW,317,0.0,0.0,75,0.00,,OVC250,0.00,VWS V15.00,2017-02-20 16:35:00,
2017-02-20 10:40:00,63.6,55.2,30.16,NW,317,0.0,0.0,74,0.00,,OVC250,0.00,VWS V15.00,2017-02-20 16:40:00,
2017-02-20 10:45:00,64.1,55.3,30.16,NW,317,0.0,3.0,73,0.00,,OVC250,0.00,VWS V15.00,2017-02-20 16:45:00,
2017-02-20 10:50:00,64.6,55.4,30.15,NW,317,0.0,0.0,72,0.00,,OVC250,0.00,VWS V15.00,2017-02-20 16:50:00,
2017-02-20 10:55:00,65.0,55.0,30.16,WNW,302,0.0,7.0,70,0.00,,OVC250,0.00,VWS V15.00,2017-02-20 16:55:00,
2017-02-20 11:00:00,65.4,55.0,30.16,WNW,302,0.0,0.0,69,0.00,,OVC250,0.00,VWS V15.00,2017-02-20 17:00:00,
2017-02-20 11:05:00,65.7,55.7,30.15,WNW,302,0.0,0.0,70,0.00,,OVC250,0.00,VWS V15.00,2017-02-20 17:05:00,
2017-02-20 11:10:00,66.0,55.5,30.15,WNW,302,0.0,0.0,69,0.00,,OVC250,0.00,VWS V15.00,2017-02-20 17:10:00,
2017-02-20 11:15:00,66.5,55.2,30.15,WNW,294,0.0,5.0,67,0.00,,OVC250,0.00,VWS V15.00,2017-02-20 17:15:00,
2017-02-20 11:20:00,67.2,55.0,30.15,WNW,292,3.0,4.0,65,0.00,,OVC250,0.00,VWS V15.00,2017-02-20 17:20:00,
2017-02-20 11:25:00,67.7,55.1,30.15,West,259,0.0,6.0,64,0.00,,OVC250,0.00,VWS V15.00,2017-02-20 17:25:00,
2017-02-20 11:30:00,68.4,54.9,30.15,SW,218,6.0,6.0,62,0.00,,OVC250,0.00,VWS V15.00,2017-02-20 17:30:00,
2017-02-20 11:35:00,68.7,54.7,30.15,SW,214,0.0,8.0,61,0.00,,OVC250,0.00,VWS V15.00,2017-02-20 17:35:00,
2017-02-20 11:40:00,69.0,55.0,30.15,SSW,210,8.0,8.0,61,0.00,,OVC250,0.00,VWS V15.00,2017-02-20 17:40:00,
2017-02-20 11:45:00,69.1,55.1,30.15,SSW,210,2.0,8.0,61,0.00,,OVC250,0.00,VWS V15.00,2017-02-20 17:45:00,
2017-02-20 11:50:00,69.4,54.9,30.14,SSW,210,0.0,0.0,60,0.00,,OVC250,0.00,VWS V15.00,2017-02-20 17:50:00,
2017-02-20 11:55:00,69.5,55.0,30.14,SW,215,2.0,7.0,60,0.00,,OVC250,0.00,VWS V15.00,2017-02-20 17:55:00,
2017-02-20 12:00:00,69.7,54.8,30.13,SSW,209,4.0,7.0,59,0.00,,OVC250,0.00,VWS V15.00,2017-02-20 18:00:00,
2017-02-20 12:05:00,69.9,54.9,30.14,SSW,207,0.0,7.0,59,0.00,,OVC250,0.00,VWS V15.00,2017-02-20 18:05:00,
2017-02-20 12:06:00,69.9,54.9,30.14,SSW,208,0.0,7.0,59,0.00,,OVC250,0.00,VWS V15.00,2017-02-20 18:06:00,
2017-02-20 12:11:00,70.2,55.7,30.13,SSW,208,0.0,0.0,60,0.00,,OVC250,0.00,VWS V15.00,2017-02-20 18:11:00,
2017-02-20 12:16:00,70.3,54.8,30.13,SSW,207,3.0,5.0,58,0.00,,OVC250,0.00,VWS V15.00,2017-02-20 18:16:00,
2017-02-20 12:21:00,70.3,54.8,30.12,SSW,206,0.0,0.0,58,0.00,,OVC250,0.00,VWS V15.00,2017-02-20 18:21:00,
2017-02-20 12:26:00,70.6,54.6,30.12,SSW,199,1.0,7.0,57,0.00,,OVC250,0.00,VWS V15.00,2017-02-20 18:26:00,
2017-02-20 12:31:00,70.6,54.6,30.12,SSW,197,3.0,5.0,57,0.00,,OVC250,0.00,VWS V15.00,2017-02-20 18:31:00,
2017-02-20 12:36:00,70.7,55.2,30.11,SSW,195,3.0,7.0,58,0.00,,OVC250,0.00,VWS V15.00,2017-02-20 18:36:00,
2017-02-20 12:41:00,70.9,54.9,30.10,SSW,196,4.0,4.0,57,0.00,,OVC250,0.00,VWS V15.00,2017-02-20 18:41:00,
2017-02-20 12:46:00,71.0,55.0,30.10,SSW,197,6.0,6.0,57,0.00,,OVC250,0.00,VWS V15.00,2017-02-20 18:46:00,
2017-02-20 12:51:00,71.0,55.0,30.10,SSW,194,0.0,0.0,57,0.00,,OVC250,0.00,VWS V15.00,2017-02-20 18:51:00,
2017-02-20 12:56:00,71.3,55.3,30.10,SSW,194,3.0,6.0,57,0.00,,OVC250,0.00,VWS V15.00,2017-02-20 18:56:00,
2017-02-20 13:01:00,71.4,55.4,30.10,SSW,194,0.0,0.0,57,0.00,,OVC250,0.00,VWS V15.00,2017-02-20 19:01:00,
2017-02-20 13:06:00,71.5,54.5,30.09,SSW,194,0.0,1.0,55,0.00,,OVC250,0.00,VWS V15.00,2017-02-20 19:06:00,
2017-02-20 13:11:00,71.7,55.2,30.08,SSW,192,0.0,0.0,56,0.00,,OVC250,0.00,VWS V15.00,2017-02-20 19:11:00,
2017-02-20 13:16:00,71.8,54.3,30.08,South,188,0.0,6.0,54,0.00,,OVC250,0.00,VWS V15.00,2017-02-20 19:16:00,
2017-02-20 13:21:00,71.9,53.9,30.08,South,188,6.0,6.0,53,0.00,,OVC250,0.00,VWS V15.00,2017-02-20 19:21:00,
2017-02-20 13:26:00,72.0,54.5,30.08,South,188,3.0,6.0,54,0.00,,OVC250,0.00,VWS V15.00,2017-02-20 19:26:00,
2017-02-20 13:31:00,72.1,54.6,30.08,South,182,0.0,4.0,54,0.00,,OVC250,0.00,VWS V15.00,2017-02-20 19:31:00,
2017-02-20 13:36:00,72.3,53.2,30.07,South,186,7.0,7.0,51,0.00,,OVC250,0.00,VWS V15.00,2017-02-20 19:36:00,
2017-02-20 13:41:00,72.7,53.5,30.08,South,187,0.0,5.0,51,0.00,,OVC250,0.00,VWS V15.00,2017-02-20 19:41:00,
2017-02-20 13:46:00,73.3,54.6,30.08,South,188,1.0,5.0,52,0.00,,OVC250,0.00,VWS V15.00,2017-02-20 19:46:00,
2017-02-20 13:51:00,73.5,53.2,30.07,South,182,5.0,6.0,49,0.00,,OVC250,0.00,VWS V15.00,2017-02-20 19:51:00,
2017-02-20 13:56:00,73.5,53.2,30.07,South,182,0.0,6.0,49,0.00,,OVC250,0.00,VWS V15.00,2017-02-20 19:56:00,
2017-02-20 14:01:00,73.4,53.1,30.07,South,176,0.0,6.0,49,0.00,,OVC250,0.00,VWS V15.00,2017-02-20 20:01:00,
2017-02-20 14:06:00,73.5,53.2,30.06,South,177,0.0,7.0,49,0.00,,OVC250,0.00,VWS V15.00,2017-02-20 20:06:00,
2017-02-20 14:11:00,73.8,54.0,30.06,South,169,0.0,0.0,50,0.00,,OVC250,0.00,VWS V15.00,2017-02-20 20:11:00,
2017-02-20 14:16:00,74.1,52.6,30.06,South,175,0.0,7.0,47,0.00,,OVC250,0.00,VWS V15.00,2017-02-20 20:16:00,
2017-02-20 14:21:00,74.3,53.4,30.06,South,177,0.0,0.0,48,0.00,,OVC250,0.00,VWS V15.00,2017-02-20 20:21:00,
2017-02-20 14:26:00,74.3,52.8,30.06,South,173,0.0,9.0,47,0.00,,OVC250,0.00,VWS V15.00,2017-02-20 20:26:00,
2017-02-20 14:31:00,74.3,52.8,30.06,South,173,0.0,1.0,47,0.00,,OVC250,0.00,VWS V15.00,2017-02-20 20:31:00,
2017-02-20 14:36:00,74.3,52.8,30.06,South,173,2.0,6.0,47,0.00,,OVC250,0.00,VWS V15.00,2017-02-20 20:36:00,
2017-02-20 14:41:00,74.3,53.4,30.06,South,181,4.0,6.0,48,0.00,,OVC250,0.00,VWS V15.00,2017-02-20 20:41:00,
2017-02-20 14:46:00,74.5,53.5,30.06,South,183,3.0,6.0,48,0.00,,OVC250,0.00,VWS V15.00,2017-02-20 20:46:00,
2017-02-20 14:51:00,74.6,52.5,30.06,SSW,194,2.0,9.0,46,0.00,,OVC250,0.00,VWS V15.00,2017-02-20 20:51:00,
2017-02-20 14:56:00,74.7,53.2,30.06,SSW,194,3.0,9.0,47,0.00,,OVC250,0.00,VWS V15.00,2017-02-20 20:56:00,
2017-02-20 15:01:00,74.8,52.7,30.06,SSW,195,0.0,7.0,46,0.00,,OVC250,0.00,VWS V15.00,2017-02-20 21:01:00,
2017-02-20 15:06:00,74.9,52.8,30.06,SSW,197,5.0,8.0,46,0.00,,OVC250,0.00,VWS V15.00,2017-02-20 21:06:00,
2017-02-20 15:11:00,74.9,52.8,30.06,SSW,200,0.0,1.0,46,0.00,,OVC250,0.00,VWS V15.00,2017-02-20 21:11:00,
2017-02-20 15:16:00,74.7,52.6,30.06,SSW,197,0.0,6.0,46,0.00,,OVC250,0.00,VWS V15.00,2017-02-20 21:16:00,
2017-02-20 15:21:00,74.5,53.0,30.06,SSW,197,2.0,4.0,47,0.00,,OVC250,0.00,VWS V15.00,2017-02-20 21:21:00,
2017-02-20 15:26:00,74.4,52.9,30.06,SSW,196,0.0,4.0,47,0.00,,OVC250,0.00,VWS V15.00,2017-02-20 21:26:00,
2017-02-20 15:31:00,74.3,53.4,30.05,SSW,195,0.0,1.0,48,0.00,,OVC250,0.00,VWS V15.00,2017-02-20 21:31:00,
2017-02-20 15:36:00,74.2,53.3,30.05,SSW,192,0.0,6.0,48,0.00,,OVC250,0.00,VWS V15.00,2017-02-20 21:36:00,
2017-02-20 15:41:00,74.3,53.9,30.05,SSW,193,2.0,2.0,49,0.00,,BKN250,0.00,VWS V15.00,2017-02-20 21:41:00,
2017-02-20 15:46:00,74.3,53.9,30.05,SSW,193,0.0,2.0,49,0.00,,BKN250,0.00,VWS V15.00,2017-02-20 21:46:00,
2017-02-20 15:51:00,74.4,53.5,30.05,SSW,193,0.0,0.0,48,0.00,,BKN250,0.00,VWS V15.00,2017-02-20 21:51:00,
2017-02-20 15:56:00,74.5,54.1,30.05,SSW,193,0.0,0.0,49,0.00,,BKN250,0.00,VWS V15.00,2017-02-20 21:56:00,
2017-02-20 16:01:00,74.6,54.2,30.05,SSW,192,0.0,4.0,49,0.00,,BKN250,0.00,VWS V15.00,2017-02-20 22:01:00,
2017-02-20 16:06:00,74.5,53.5,30.05,SSW,192,0.0,4.0,48,0.00,,BKN250,0.00,VWS V15.00,2017-02-20 22:06:00,
2017-02-20 16:11:00,74.4,52.9,30.05,SSW,192,3.0,5.0,47,0.00,,BKN250,0.00,VWS V15.00,2017-02-20 22:11:00,
2017-02-20 16:12:00,74.4,52.9,30.05,SSW,193,0.0,5.0,47,0.00,,BKN250,0.00,VWS V15.00,2017-02-20 22:12:00,
2017-02-20 16:17:00,74.3,53.4,30.04,South,191,0.0,5.0,48,0.00,,BKN250,0.00,VWS V15.00,2017-02-20 22:17:00,
2017-02-20 16:22:00,74.2,52.7,30.04,South,191,5.0,5.0,47,0.00,,BKN250,0.00,VWS V15.00,2017-02-20 22:22:00,
2017-02-20 16:27:00,73.9,52.4,30.04,South,190,0.0,6.0,47,0.00,,BKN250,0.00,VWS V15.00,2017-02-20 22:27:00,
2017-02-20 16:32:00,73.7,52.8,30.04,South,190,0.0,0.0,48,0.00,,BKN250,0.00,VWS V15.00,2017-02-20 22:32:00,
2017-02-20 16:37:00,73.4,52.5,30.04,South,190,0.0,5.0,48,0.00,,BKN250,0.00,VWS V15.00,2017-02-20 22:37:00,
2017-02-20 16:42:00,73.2,52.9,30.04,South,190,0.0,0.0,49,0.00,,BKN250,0.00,VWS V15.00,2017-02-20 22:42:00,